Legenda:
Basso (0-210)
Molto Alto (490 - 630)

Moderato (210 - 350)
Estremo (630 - 800)

Alto (350 - 490)
Molto estremo (800+)


 
570.32
Date Temp. (°C) Wind Speed (km/h) Rain (mm) RH Days Since Rain pwsFWI
La previsione è attiva (incluso oggi!), I valori sono sopra la linea rossa.
09/10/22 24.00 13.00 2.10 0.68 0 161.67
08/10/22 23.00 16.00 0.00 0.64 9 295.62
07/10/22 23.00 14.00 0.00 0.69 8 459.18
06/10/22 24.00 14.00 0.00 0.65 7 551.34
05/10/22 24.00 15.00 0.00 0.62 6 605.25
04/10/22 23.50 16.00 0.00 0.68 5 570.32
03/10/22 28.90 27.00 0.00 0.36 4 651.72
02/10/22 30.90 32.00 0.00 0.31 3 685.15
01/10/22 25.10 28.00 0.00 0.34 2 532.00
30/09/22 26.60 22.00 0.00 0.45 1 413.51
29/09/22 24.40 31.00 1.80 0.49 0 478.81
28/09/22 26.20 33.00 0.00 0.50 2 488.76
27/09/22 27.80 36.00 0.00 0.36 1 461.43
26/09/22 24.70 18.00 0.30 0.60 0 357.20
25/09/22 24.00 27.00 3.30 0.66 0 426.68
24/09/22 25.60 39.00 0.00 0.60 2 485.06
23/09/22 23.50 18.00 0.00 0.46 1 447.12
22/09/22 23.80 26.00 0.90 0.44 0 602.15
21/09/22 25.80 22.00 0.60 0.53 0 697.45
20/09/22 25.50 23.00 0.00 0.42 5 699.77
19/09/22 26.40 23.00 0.00 0.47 4 656.46
18/09/22 25.10 18.00 0.00 0.43 3 620.99
17/09/22 29.20 32.00 0.00 0.18 2 626.63
16/09/22 33.20 27.00 0.00 0.34 1 525.45
15/09/22 29.40 23.00 0.30 0.65 0 511.08
14/09/22 28.70 21.00 0.00 0.73 11 556.18
13/09/22 29.00 22.00 0.00 0.72 10 562.18
12/09/22 27.40 21.00 0.00 0.53 9 515.45
11/09/22 31.10 23.00 0.00 0.46 8 481.61
10/09/22 33.90 23.00 0.00 0.31 7 404.36
CumulusUtils Version 2.1.7 © Hans Rottier
Science background here. - NOTE: Behavioural testing still under way!
Prediction courtesy of https://www.yourweather.co.uk/